Overview Statistics Trail Chart Weather Telemetry Raw packets
 

This is the latest recevied weather packets stored in our database for station/object SV2RCS-13. If no packets are shown the sender has not sent any weather packets the latest 10 day(s).

<< 21 22 23 24 25 26 >>
Time Temp. Humidity Pressure Rain* Wind** Luminosity Snow
1788062137 22.22° C 66% 1015.7 hPa - - - -
1788061538 22.22° C 67% 1015.8 hPa - - - -
1788060937 22.22° C 67% 1015.8 hPa - - - -
1788060337 22.78° C 65% 1015.7 hPa - - - -
1788059737 22.22° C 64% 1015.6 hPa - - - -
1788059137 22.22° C 66% 1015.8 hPa - - - -
1788058537 22.22° C 66% 1015.8 hPa - - - -
1788057938 22.78° C 65% 1015.8 hPa - - - -
1788057337 22.78° C 65% 1015.7 hPa - - - -
1788056738 22.78° C 64% 1015.8 hPa - - - -
1788056138 23.33° C 64% 1015.5 hPa - - - -
1788055538 22.78° C 64% 1015.6 hPa - - - -
1788054937 23.33° C 62% 1015.6 hPa - - - -
1788054337 23.33° C 62% 1015.8 hPa - - - -
1788053738 23.33° C 62% 1015.7 hPa - - - -
1788053137 23.89° C 61% 1015.6 hPa - - - -
1788052538 23.89° C 61% 1015.5 hPa - - - -
1788051951 23.89° C 61% 1015.5 hPa - - - -
1788051337 23.89° C 61% 1015.6 hPa - - - -
1788050738 23.89° C 61% 1015.6 hPa - - - -
1788050137 23.89° C 61% 1015.6 hPa - - - -
1788049538 24.44° C 60% 1015.5 hPa - - - -
1788048937 24.44° C 59% 1015.5 hPa - - - -
1788048337 24.44° C 60% 1015.6 hPa - - - -
1788047737 24.44° C 61% 1015.6 hPa - - - -

* Rain since midnight (hover to see other rain measurements)
** Current wind speed in m/s (hover to see current wind gust speed)